WESTFORD NEEDLES, 2362

Orbit data source: Space-Track

WESTFORD NEEDLES, 2362 is space debris originally from a launch on Thu, 09 May 1963 UTC launched from the Air Force Western Test Range (AFWTR). Debris objects in space refer to the collection of defunct objects orbiting the Earth. Examples of debris include non-operational satellites, rocket bodies, and fragments generated from explosions, collisions, or faulty payload assembly.

Loading next visibility...
Identifier
2362, 1963-014M
Orbit
Active
Country
Flag of USUS
Related business
Manufacturer
Unknown
Mission
Spacecraft
Bus & Motor
Unknown
Mass
Unknown
Launch date (UTC)
1963-05-09 (62 years ago)
Launch vehicle
Unknown
Launch site
Air Force Western Test Range (AFWTR)
Object type
Payload
Rocket body
Debris
Shape & HBR
Unknown
Radar Cross Section
Medium (>0.1 m² and <1 m²)

Expand to show TLE details & history
Last TLE update: 21 hours ago

TLE from 21 hours ago
0 WESTFORD NEEDLES
1 02362U 63014M   25260.27632441 -.00000003  00000-0 -81801-4 0  9998
2 02362  85.2150  13.8868 2537067 355.3868   2.7163  8.85122380982597
Epoch: 2025-09-17T06:37Z
TLE epoch observation values (Epoch: 2025-09-17T06:37:54.429Z)
Latitude
-0.00003°
Longitude
-82.04459°
Altitude
996.352 km
Speed
8.232 km/s
True Right ascension
00h 55m 32s
True Declination
0° 00' 00"
Sunlit
Object was in full shadow at epoch
Visualization orbit readout
Latitude
Unknown
Longitude
Unknown
Altitude
Unknown
Speed
Unknown
Apparent Right ascension
Unknown
Apparent Declination
Unknown
Sunlit
N/A
Visualization observer readout
Local Sidereal Time
20:46:13
Azimuth
Unknown
Elevation
Unknown
Doppler factor
Unknown
Orbital elements
Apogee altitude
5,995.281 km
Perigee altitude
987.381 km
Semi-major axis
9,869.468 km
Eccentricity
0.25371
Inclination
85.215°
RAAN
13.8868°
Arg. of periapsis
355.3868°
True anomaly
4.71534°
Mean anomaly
2.7163°
Eccentric anomaly
3.63889°
Mean motion
2.21362 °/min
Orbital period
162.63 mins
BSTAR
-0.000081801
Loading maneuver chart data...
Computing Atmospheric mass density...

Documentation

Showing up to 5 results
|